Orbital Elements at Epoch 2459200.5 (2020-Dec-17.0) TDB
Reference: JPL 19 (heliocentric ecliptic J2000)
Element | Value | Uncertainty (1-sigma) | Units |
e | .06687081871673733 | 4.3521e-08 | |
a | 2.574066826297219 | 1.609e-08 | au |
q | 2.401936870191131 | 1.1301e-07 | au |
i | 2.115994484631373 | 4.6081e-06 | deg |
node | 111.2764206262042 | 0.00013107 | deg |
peri | 94.58255748329806 | 0.00013607 | deg |
M | 316.8364865202217 | 3.9397e-05 | deg |
tp | 2459381.359964479119 (2021-Jun-15.85996448) | 0.00016544 | TDB |
period | 1508.440392438999 4.13 | 1.4144e-05 3.872e-08 | d yr |
n | .2386570936475093 | 2.2377e-09 | deg/d |
Q | 2.746196782403308 | 1.7166e-08 | au |
|
| | Orbit Determination Parameters
Additional Information
|